TSC819 CYMX-KLAS

Flight info

Callsign TSC819
Flight time N/A
Altitude 34000
Route KESKA Q997 KISUK Q848 LETAK Q824 FNT J36 BAE J16 MCW J148 ONL J114 SNY J100 BCE BLAID2
Aircraft MD11/H-SDE1E2E3FGHIJ2J3J4J5M1RWXY/LB1D1

Departure

Time 2026-04-25 10:21
Airport Montreal Mirabel International Airport (CYMX)

Arrival

Time N/A
Airport Harry Reid International Airport (KLAS)
Time Latitude Longitude Altitude Speed Heading
2026-04-25 09:41 45.68419 -74.01580 274 ft 0 kts 122°
2026-04-25 10:01 45.68429 -74.01605 275 ft 4 kts 122°
2026-04-25 10:02 45.68444 -74.01638 276 ft 4 kts 122°
2026-04-25 10:02 45.68458 -74.01670 275 ft 4 kts 122°
2026-04-25 10:02 45.68466 -74.01689 275 ft 0 kts 122°
2026-04-25 10:13 45.68461 -74.01676 275 ft 6 kts 122°
2026-04-25 10:14 45.68446 -74.01669 275 ft 2 kts 180°
2026-04-25 10:14 45.68437 -74.01686 275 ft 1 kts 251°
2026-04-25 10:14 45.68436 -74.01744 275 ft 7 kts 280°
2026-04-25 10:14 45.68444 -74.01812 275 ft 9 kts 279°
2026-04-25 10:15 45.68427 -74.01916 279 ft 8 kts 214°
2026-04-25 10:15 45.68411 -74.01908 275 ft 1 kts 143°
2026-04-25 10:15 45.68404 -74.01898 277 ft 1 kts 137°
2026-04-25 10:15 45.68333 -74.01802 275 ft 21 kts 136°
2026-04-25 10:16 45.68251 -74.01689 275 ft 26 kts 132°
2026-04-25 10:16 45.68166 -74.01565 275 ft 12 kts 158°
2026-04-25 10:16 45.68103 -74.01601 275 ft 9 kts 217°
2026-04-25 10:16 45.68057 -74.01661 276 ft 9 kts 223°
2026-04-25 10:17 45.68004 -74.01733 276 ft 12 kts 224°
2026-04-25 10:17 45.67938 -74.01825 280 ft 15 kts 224°
2026-04-25 10:17 45.67854 -74.01943 277 ft 20 kts 224°
2026-04-25 10:17 45.67737 -74.02105 278 ft 26 kts 224°
2026-04-25 10:18 45.67599 -74.02301 279 ft 26 kts 225°
2026-04-25 10:18 45.67478 -74.02473 280 ft 23 kts 215°
2026-04-25 10:18 45.67337 -74.02470 280 ft 20 kts 155°
2026-04-25 10:18 45.67218 -74.02394 280 ft 17 kts 150°
2026-04-25 10:19 45.67136 -74.02293 280 ft 14 kts 134°
2026-04-25 10:19 45.67074 -74.02189 284 ft 10 kts 122°
2026-04-25 10:19 45.67073 -74.02155 279 ft 2 kts 79°
2026-04-25 10:19 45.67080 -74.02137 279 ft 1 kts 51°
2026-04-25 10:20 45.67109 -74.02099 281 ft 15 kts 44°
2026-04-25 10:20 45.67386 -74.01700 280 ft 104 kts 46°
2026-04-25 10:20 45.68092 -74.00686 285 ft 177 kts 44°
2026-04-25 10:20 45.69029 -73.99401 739 ft 194 kts 43°
2026-04-25 10:21 45.70015 -73.98154 1791 ft 168 kts 41°
2026-04-25 10:21 45.70889 -73.97064 2958 ft 166 kts 43°
2026-04-25 10:21 45.71772 -73.96092 4015 ft 162 kts 32°
2026-04-25 10:21 45.72899 -73.95801 4846 ft 174 kts 354°
2026-04-25 10:22 45.74040 -73.96644 5386 ft 206 kts 320°
2026-04-25 10:22 45.74999 -73.98392 5623 ft 240 kts 307°
2026-04-25 10:22 45.75908 -74.00549 5761 ft 266 kts 292°
2026-04-25 10:22 45.76161 -74.03253 6139 ft 282 kts 262°
2026-04-25 10:23 45.75498 -74.05880 6957 ft 283 kts 234°
2026-04-25 10:23 45.74229 -74.08027 7665 ft 287 kts 230°
2026-04-25 10:23 45.73349 -74.10587 8485 ft 290 kts 257°
2026-04-25 10:23 45.73209 -74.13477 9252 ft 294 kts 273°
2026-04-25 10:24 45.73321 -74.16411 10077 ft 296 kts 273°
2026-04-25 10:24 45.73382 -74.19487 10339 ft 325 kts 271°
2026-04-25 10:24 45.73319 -74.22845 10487 ft 352 kts 268°
2026-04-25 10:24 45.73136 -74.26431 10954 ft 366 kts 265°
2026-04-25 10:25 45.72869 -74.30084 11818 ft 369 kts 265°
2026-04-25 10:25 45.72724 -74.33751 12664 ft 369 kts 274°
2026-04-25 10:25 45.73161 -74.37340 13478 ft 367 kts 292°
2026-04-25 10:25 45.74298 -74.40596 14265 ft 367 kts 304°
2026-04-25 10:26 45.75746 -74.43602 15057 ft 368 kts 308°
2026-04-25 10:26 45.77286 -74.46547 15839 ft 370 kts 309°
2026-04-25 10:26 45.78840 -74.49504 16630 ft 372 kts 309°
2026-04-25 10:26 45.80381 -74.52493 17392 ft 374 kts 308°
2026-04-25 10:27 45.81895 -74.55480 18137 ft 377 kts 308°
2026-04-25 10:27 45.83391 -74.58585 18804 ft 381 kts 302°
2026-04-25 10:27 45.84463 -74.62068 19558 ft 385 kts 292°
2026-04-25 10:27 45.85214 -74.65782 20266 ft 389 kts 288°
2026-04-25 10:28 45.85843 -74.69567 20948 ft 390 kts 287°
2026-04-25 10:28 45.86444 -74.73377 21621 ft 392 kts 287°
2026-04-25 10:28 45.87049 -74.77192 22289 ft 392 kts 287°
2026-04-25 10:28 45.87669 -74.81010 22900 ft 394 kts 288°
2026-04-25 10:29 45.88290 -74.84849 23515 ft 396 kts 287°
2026-04-25 10:29 45.88696 -74.88786 24084 ft 403 kts 279°
2026-04-25 10:29 45.88564 -74.92840 24679 ft 414 kts 266°
2026-04-25 10:29 45.87747 -74.96855 25227 ft 426 kts 255°
2026-04-25 10:30 45.86469 -75.00734 25754 ft 433 kts 250°
2026-04-25 10:30 45.85020 -75.04539 26276 ft 436 kts 249°
2026-04-25 10:30 45.83531 -75.08337 26813 ft 437 kts 249°
2026-04-25 10:30 45.82057 -75.12155 27328 ft 438 kts 250°
2026-04-25 10:31 45.80610 -75.15994 27855 ft 438 kts 250°
2026-04-25 10:31 45.79180 -75.19852 28320 ft 439 kts 251°
2026-04-25 10:31 45.77761 -75.23730 28812 ft 440 kts 251°
2026-04-25 10:31 45.76345 -75.27621 29250 ft 441 kts 251°
2026-04-25 10:32 45.74930 -75.31521 29708 ft 442 kts 251°
2026-04-25 10:32 45.73514 -75.35407 30310 ft 439 kts 252°
2026-04-25 10:32 45.72102 -75.39267 30881 ft 436 kts 252°
2026-04-25 10:32 45.70701 -75.43100 31408 ft 434 kts 252°
2026-04-25 10:33 45.69299 -75.46925 31891 ft 432 kts 252°
2026-04-25 10:33 45.67905 -75.50725 32331 ft 432 kts 252°
2026-04-25 10:33 45.66509 -75.54530 32705 ft 432 kts 252°
2026-04-25 10:33 45.65116 -75.58330 33098 ft 432 kts 252°
2026-04-25 10:34 45.63722 -75.62123 33465 ft 430 kts 252°
2026-04-25 10:34 45.62313 -75.65946 33815 ft 428 kts 252°
2026-04-25 10:34 45.60944 -75.69665 33927 ft 431 kts 252°
2026-04-25 10:35 45.58141 -75.77255 33963 ft 433 kts 252°
2026-04-25 10:35 45.55325 -75.84842 33964 ft 432 kts 252°
2026-04-25 10:36 45.52510 -75.92402 33958 ft 432 kts 252°
2026-04-25 10:36 45.49693 -75.99973 33976 ft 433 kts 252°
2026-04-25 10:36 45.48270 -76.03753 34333 ft 433 kts 251°
2026-04-25 10:37 45.46835 -76.07526 34648 ft 433 kts 251°
2026-04-25 10:37 45.45399 -76.11309 34897 ft 434 kts 251°
2026-04-25 10:37 45.43966 -76.15097 35176 ft 435 kts 251°
2026-04-25 10:37 45.42531 -76.18902 35423 ft 436 kts 251°
2026-04-25 10:38 45.41092 -76.22710 35663 ft 438 kts 251°
2026-04-25 10:38 45.39783 -76.26582 35863 ft 433 kts 256°
2026-04-25 10:38 45.38721 -76.30586 35933 ft 433 kts 259°
2026-04-25 10:39 45.36880 -76.38686 35934 ft 428 kts 261°
2026-04-25 10:39 45.35077 -76.46727 35934 ft 426 kts 260°
2026-04-25 10:40 45.33231 -76.54751 35923 ft 427 kts 259°
2026-04-25 10:40 45.31365 -76.62751 35916 ft 427 kts 259°
2026-04-25 10:41 45.29485 -76.70752 35904 ft 427 kts 259°
2026-04-25 10:41 45.27598 -76.78744 35895 ft 427 kts 259°
2026-04-25 10:42 45.25711 -76.86731 35890 ft 427 kts 258°
2026-04-25 10:42 45.23808 -76.94698 35888 ft 427 kts 258°
2026-04-25 10:43 45.21901 -77.02677 35888 ft 426 kts 258°
2026-04-25 10:43 45.20001 -77.10637 35874 ft 427 kts 258°
2026-04-25 10:44 45.18096 -77.18597 35881 ft 426 kts 258°
2026-04-25 10:44 45.16191 -77.26541 35881 ft 426 kts 258°
2026-04-25 10:45 45.14293 -77.34442 35866 ft 426 kts 258°
2026-04-25 10:45 45.12377 -77.42367 35864 ft 425 kts 257°
2026-04-25 10:46 45.10454 -77.50283 35855 ft 425 kts 257°
2026-04-25 10:46 45.08530 -77.58194 35859 ft 426 kts 257°
2026-04-25 10:47 45.06594 -77.66107 35855 ft 425 kts 257°
2026-04-25 10:47 45.04657 -77.74010 35847 ft 425 kts 257°
2026-04-25 10:48 45.02715 -77.81902 35845 ft 425 kts 257°
2026-04-25 10:48 45.00770 -77.89785 35846 ft 425 kts 257°
2026-04-25 10:49 44.98819 -77.97665 35856 ft 425 kts 257°
2026-04-25 10:49 44.96826 -78.05537 35852 ft 425 kts 255°
2026-04-25 10:50 44.94843 -78.13371 35838 ft 423 kts 256°
2026-04-25 10:50 44.92874 -78.21196 35842 ft 423 kts 255°
2026-04-25 10:51 44.90911 -78.29021 35837 ft 423 kts 255°
2026-04-25 10:51 44.88940 -78.36849 35838 ft 423 kts 255°
2026-04-25 10:52 44.86964 -78.44666 35830 ft 423 kts 255°
2026-04-25 10:52 44.84986 -78.52474 35833 ft 423 kts 255°
2026-04-25 10:53 44.83000 -78.60267 35830 ft 422 kts 255°
2026-04-25 10:53 44.81011 -78.68057 35833 ft 423 kts 255°
2026-04-25 10:54 44.78931 -78.75806 35827 ft 425 kts 251°
2026-04-25 10:54 44.76330 -78.83311 35833 ft 427 kts 248°
2026-04-25 10:55 44.73591 -78.90732 35829 ft 427 kts 248°
2026-04-25 10:55 44.70878 -78.98154 35827 ft 426 kts 248°
2026-04-25 10:56 44.68182 -79.05574 35834 ft 426 kts 248°
2026-04-25 10:56 44.65485 -79.12992 35828 ft 426 kts 248°
2026-04-25 10:57 44.63245 -79.19141 35833 ft 426 kts 247°
2026-04-25 10:57 44.60091 -79.27773 35824 ft 425 kts 247°
2026-04-25 10:58 44.57391 -79.35146 35827 ft 424 kts 247°
2026-04-25 10:58 44.55149 -79.41261 35822 ft 424 kts 247°
2026-04-25 10:59 44.52445 -79.48613 35821 ft 424 kts 246°
2026-04-25 10:59 44.49733 -79.55946 35814 ft 423 kts 246°
2026-04-25 11:00 44.47027 -79.63255 35813 ft 423 kts 246°
2026-04-25 11:00 44.44322 -79.70547 35804 ft 422 kts 246°
2026-04-25 11:01 44.41613 -79.77830 35804 ft 422 kts 246°
2026-04-25 11:01 44.38870 -79.85081 35797 ft 422 kts 246°
2026-04-25 11:02 44.36134 -79.92330 35793 ft 421 kts 246°
2026-04-25 11:02 44.33414 -79.99568 35796 ft 420 kts 245°
2026-04-25 11:03 44.30696 -80.06799 35794 ft 421 kts 245°
2026-04-25 11:03 44.27969 -80.14026 35786 ft 421 kts 245°
2026-04-25 11:04 44.25241 -80.21246 35787 ft 421 kts 245°
2026-04-25 11:04 44.22508 -80.28458 35783 ft 421 kts 245°
2026-04-25 11:05 44.19769 -80.35665 35785 ft 421 kts 245°
2026-04-25 11:05 44.17023 -80.42873 35784 ft 421 kts 245°
2026-04-25 11:06 44.14276 -80.50064 35772 ft 421 kts 245°
2026-04-25 11:06 44.11517 -80.57269 35766 ft 421 kts 245°
2026-04-25 11:07 44.08756 -80.64455 35765 ft 422 kts 245°
2026-04-25 11:07 44.05991 -80.71647 35769 ft 421 kts 244°
2026-04-25 11:08 44.03226 -80.78821 35766 ft 421 kts 244°
2026-04-25 11:08 44.00430 -80.85968 35765 ft 421 kts 244°
2026-04-25 11:09 43.97625 -80.93119 35762 ft 421 kts 244°
2026-04-25 11:09 43.94842 -81.00256 35756 ft 420 kts 244°
2026-04-25 11:10 43.92058 -81.07402 35755 ft 421 kts 244°
2026-04-25 11:10 43.89268 -81.14533 35755 ft 421 kts 243°
2026-04-25 11:11 43.86476 -81.21661 35767 ft 421 kts 243°
2026-04-25 11:11 43.83699 -81.28736 35757 ft 421 kts 243°
2026-04-25 11:12 43.80897 -81.35855 35758 ft 421 kts 243°
2026-04-25 11:12 43.78088 -81.42967 35756 ft 421 kts 243°
2026-04-25 11:13 43.75277 -81.50067 35758 ft 421 kts 243°
2026-04-25 11:13 43.72451 -81.57147 35755 ft 420 kts 242°
2026-04-25 11:14 43.69570 -81.64194 35757 ft 421 kts 242°
2026-04-25 11:14 43.66687 -81.71244 35758 ft 421 kts 242°
2026-04-25 11:15 43.63807 -81.78288 35749 ft 421 kts 242°
2026-04-25 11:15 43.60927 -81.85334 35750 ft 421 kts 242°
2026-04-25 11:16 43.56599 -81.95891 35756 ft 421 kts 242°